User: anonymous   Login
Location: Balaclava NSW 2575, Australia
(34.4510°S, 150.4953°E)
Time: 08:02:01
(UTC+10:00)
Language:

ISS - Orbit

View from above orbital plane
View from above orbital plane
View from above satellite
View from above satellite

Ground track
Ground track

The orbit data is extracted from the following two-line orbital elements,

1 25544U 98067A   21168.55650506  .00000828  00000-0  23203-4 0  9992
2 25544  51.6445 340.8962 0003471 102.6083   5.4597 15.48991858288651
Epoch (UTC): 17 June 2021 13:21:22
Eccentricity: 0.0003471
inclination: 51.6445°
perigee height: 417 km
apogee height: 422 km
right ascension of ascending node: 340.8962°
argument of perigee: 102.6083°
revolutions per day: 15.48991858
mean anomaly at epoch: 5.4597°
orbit number at epoch: 28865

The dashed part of the orbit path shows where the satellite is in the earth's shadow,  

DLR